Regional Weather Roundup
Issued by NWS

Home | Current Version | Previous Version | Graphics & Text | Print | Product List | Glossary On
Versions: 1 2 3 4 5 6 7 8 9 10 11 12 13 14 15 16 17 18 19 20 21 22 23 24 25 26 27 28 29 30 31 32 33 34 35 36 37 38 39 40 41 42 43 44 45 46 47 48 49 50
000
ASUS45 KBOI 210110
RWRID
WEATHER ROUNDUP FOR IDAHO
NATIONAL WEATHER SERVICE BOISE ID
700 PM MDT SAT SEP 20 2014

NOTE: "FAIR" INDICATES FEW OR NO CLOUDS BELOW 12000 FEET
WITH NO SIGNIFICANT WEATHER AND/OR OBSTRUCTIONS TO VISIBILITY

IDZ012-014-210200-
SOUTHWEST IDAHO


CITY           SKY/WX    TMP DP  RH WIND       PRES   REMARKS
BOISE          CLEAR     84  46  26 N9        30.00F
CALDWELL       CLEAR     82  48  30 NW5       30.01F
MOUNTAIN HOME  CLEAR     83  44  24 NW5       30.01F
$$

IDZ016-017-210200-
SOUTHCENTRAL IDAHO


CITY           SKY/WX    TMP DP  RH WIND       PRES   REMARKS
BURLEY         CLEAR     78  44  29 NE5       30.08S
JEROME         CLEAR     77  53  43 W3        30.08F
TWIN FALLS     CLEAR     76  51  41 E6        30.08F
$$

IDZ019>023-210200-
SOUTHEAST IDAHO


CITY           SKY/WX    TMP DP  RH WIND       PRES   REMARKS
IDAHO FALLS    CLEAR     79  44  28 N6        30.15F
POCATELLO      CLEAR     79  45  29 N7        30.12F
REXBURG        CLEAR     78  40  25 NE3       30.16F
$$

IDZ006-010-011-018-031-032-210200-
CENTRAL IDAHO MOUNTAINS


CITY           SKY/WX    TMP DP  RH WIND       PRES   REMARKS
MCCALL         FAIR      77  40  26 W6        30.13F
HAILEY         PTCLDY    75  45  33 S5        30.18F
STANLEY          N/A     76  36  23 NW3       30.22S
SALMON         CLEAR     73  54  49 CALM      30.07S
CHALLIS        CLEAR     75  43  31 NW6       30.12F
$$

IDZ002-004-006-007-026-210200-
NORTHERN IDAHO


CITY           SKY/WX    TMP DP  RH WIND       PRES   REMARKS
LEWISTON       CLEAR     88  41  19 W3        29.97F
LOWELL           N/A     70  57  63 N5        29.97S
COEUR D`ALENE  CLEAR     79  46  31 NE13      30.06F
MULLAN PASS    CLEAR     63  36  36 CALM      30.28F
$$



USA.gov is the U.S. government's official web portal to all federal, state and local government web resources and services.